Location: Breux
(46.3269°N, 3.2993°E)
Time: 09:00:41
(UTC+00:00)

Daily predictions for brighter satellites

Satellite Brightness Start Highest point End
(mag) Time Altitude Azimuth Time Altitude Azimuth Time Altitude Azimuth
IRIDIUM 114 4.3 18:50:00 10° N 18:55:14 70° E 19:00:25 10° S
Cosmos 2058 Rocket 4.0 18:55:15 10° SSE 18:59:06 29° E 19:02:59 10° NNE
Cosmos 1726 Rocket 3.9 18:57:28 10° SSE 19:01:40 45° E 19:05:56 10° NNE
SL-08 RB Rocket 4.3 18:58:22 10° SE 19:02:36 39° ENE 19:06:54 10° N
STARLINK-1228 3.1 18:59:42 10° NW 19:02:37 54° NNE 19:05:31 10° ESE
Cosmos 1461 3.3 18:58:26 10° NNW 19:02:55 59° NE 19:07:31 10° SE
IRIDIUM 103 4.3 18:59:10 10° N 19:04:25 84° E 19:09:38 10° S
Cosmos 921 Rocket 3.7 19:01:45 10° N 19:05:35 33° ENE 19:09:23 10° SE
SL-4 R/B 2.0 19:02:35 10° WSW 19:05:58 63° NNW 19:09:22 10° ENE
Cosmos 1703 3.3 19:02:17 10° N 19:06:14 61° E 19:10:09 10° SSE
Cosmos 1726 2.3 19:02:35 10° SSW 19:06:20 80° W 19:10:04 10° N
Meteor 2-10 4.3 19:02:43 10° S 19:08:13 87° W 19:13:57 10° N
CZ-4C R/B 4.4 19:03:39 10° NNW 19:08:27 21° NNE 19:13:49 10° ENE
Cosmos 1437 3.3 19:05:28 10° NNW 19:08:27 56° W 19:11:24 10° S
Cosmos 2184 Rocket 4.0 19:02:27 10° N 19:08:46 84° E 19:14:59 10° S
ADEOS Rocket 4.0 19:03:20 10° N 19:09:26 51° WNW 19:14:58 10° SW
Cosmos 1825 Rocket 3.6 19:05:11 10° N 19:09:36 89° ENE 19:13:56 10° S
Cosmos 407 Rocket 3.5 19:04:37 10° S 19:09:38 55° ESE 19:14:38 10° NNE
Cosmos 1908 3.3 19:06:19 10° S 19:10:05 54° E 19:13:54 10° NNE
Cosmos 1340 Rocket 3.4 19:06:51 10° SSE 19:10:34 36° E 19:14:16 10° NNE
FREGAT/IRIS 2.3 19:08:37 10° SSE 19:11:18 65° ENE 19:14:02 10° N
STARLINK-1201 3.6 19:08:28 10° NW 19:11:39 47° NNE 19:14:33 12° E
Cosmos 1656 Rocket 4.0 19:06:42 10° NNW 19:12:21 72° WSW 19:17:53 10° SSE
Cosmos 2228 3.0 19:08:16 10° S 19:12:32 70° E 19:16:53 10° NNE
Cosmos 1328 3.8 19:08:56 10° N 19:12:57 70° E 19:16:56 10° SSE
Cosmos 1943 3.9 19:10:58 10° SW 19:16:34 61° WNW 19:22:14 10° NNE
MOS 1 4.3 19:12:58 10° SSE 19:18:37 80° ENE 19:24:19 10° NNW
Resurs 01 Rocket 2.8 19:17:43 12° ESE 19:21:00 26° ENE 19:24:41 10° N
STARLINK-52 3.0 19:19:06 10° SW 19:22:15 57° SE 19:25:25 10° ENE
MOS 1 Rocket 4.3 19:18:13 10° NNE 19:23:06 33° E 19:27:57 10° SSE
Cosmos 1758 Rocket 4.4 19:20:07 10° NNW 19:24:21 53° W 19:28:31 10° S
CZ-2C R/B 3.3 19:19:53 10° NNE 19:24:25 30° E 19:28:58 10° SSE
Nadezhda 1 Rocket 4.0 19:18:30 10° S 19:24:50 73° E 19:31:10 10° NNE
STARLINK-1230 4.5 19:21:11 10° NW 19:25:09 42° NNE 19:28:37 13° E
BREEZE M DEB (TANK) 3.4 19:22:34 10° S 19:25:15 28° SE 19:30:59 10° ENE
Cosmos 1023 Rocket 4.4 19:23:28 10° S 19:28:34 61° ESE 19:33:38 10° NNE
SPOT 3 Rocket 3.7 19:23:30 10° SSE 19:28:36 57° ENE 19:33:41 10° N
SL-24 R/B - RUBIN 2 4.3 19:23:22 10° SSW 19:28:57 83° SE 19:35:18 10° NE
ARGOS 3.2 19:24:38 10° SSE 19:30:02 86° WSW 19:35:27 10° NNW
STARLINK-1243 4.4 19:26:09 10° NW 19:30:09 44° NNE 19:33:24 14° E
FALCON 9 DEB 3.1 19:27:05 10° SW 19:30:34 70° SE 19:34:03 10° ENE
Cosmos 2154 Rocket 4.0 19:25:24 10° N 19:31:47 82° E 19:38:07 10° S
Cosmos 1606 Rocket 4.0 19:27:50 10° SSW 19:32:15 69° W 19:36:44 10° N
Cosmos 1953 Rocket 3.8 19:28:11 10° NNW 19:32:41 78° W 19:37:09 10° S
GEOS 3 Rocket 4.2 19:28:28 10° SSE 19:33:29 54° WSW 19:38:37 10° NW
NOSS 3-4 (A) 4.1 19:27:30 10° NW 19:34:31 74° SW 19:42:14 10° SSE
NOSS 3-4 (C) 4.1 19:27:37 10° NW 19:34:38 75° SW 19:42:21 10° SSE
Cosmos 1954 Rocket 4.2 19:29:55 10° S 19:34:52 45° ESE 19:39:50 10° NNE
STARLINK-1236 4.3 19:31:09 10° NW 19:35:09 46° NNE 19:38:11 16° E
USA 186 2.5 19:32:22 10° S 19:35:35 54° W 19:38:39 10° NNW
STARLINK-67 3.3 19:35:40 10° WNW 19:38:07 40° SW 19:39:24 22° SSE
Meteor 1-11 4.3 19:37:06 10° NNW 19:42:52 82° W 19:48:31 10° S
STARLINK-1269 4.2 19:41:06 10° NW 19:45:09 50° NNE 19:47:44 20° E
STARLINK-1200 4.1 19:46:04 10° NW 19:50:09 53° NNE 19:52:31 23° E
STARLINK-1234 3.1 19:51:36 10° WNW 19:54:41 59° SW 19:55:47 34° SSE
STARLINK-1192 4.0 19:51:03 10° NW 19:55:08 55° NNE 19:57:18 25° E
STARLINK-1209 3.2 19:52:05 10° WNW 19:55:09 55° SW 19:56:15 33° SSE
STARLINK-1233 2.8 19:52:26 10° WNW 19:55:36 79° SSW 19:56:38 38° SE
STARLINK-1212 2.8 19:52:55 10° WNW 19:56:03 78° SSW 19:57:04 39° SE
STARLINK-1105 2.8 19:53:20 10° WNW 19:56:29 78° SSW 19:57:31 39° SE
STARLINK-1206 2.8 19:53:49 10° WNW 19:56:56 77° SSW 19:57:55 40° SE
STARLINK-1247 2.8 19:54:17 10° WNW 19:57:24 76° SSW 19:58:22 40° SE
SeaSat 1 4.3 19:53:12 10° NNE 19:57:37 34° NW 20:02:01 10° WSW
STARLINK-1227 2.9 19:54:40 10° WNW 19:57:49 76° SW 19:58:47 40° SE
STARLINK-1218 2.8 19:55:11 10° WNW 19:58:18 75° SW 19:59:13 41° SE
Iridium 4 Rocket 4.0 19:54:54 10° NNE 19:58:28 27° E 19:59:06 26° E
STARLINK-1226 2.8 19:55:37 10° WNW 19:58:45 74° SSW 19:59:40 42° SE
Cosmos 1980 Rocket 4.2 19:55:59 10° N 19:59:07 15° NE 20:02:02 11° ENE
STARLINK-1254 2.9 19:56:03 10° WNW 19:59:11 74° SSW 20:00:06 42° SE
STARLINK-1215 2.9 19:56:33 10° WNW 19:59:39 73° SSW 20:00:32 43° SE
STARLINK-1231 2.9 19:56:59 10° WNW 20:00:07 72° SSW 20:00:58 43° SE
STARLINK-1244 3.9 19:56:06 10° WNW 20:00:13 59° NNE 20:02:10 28° E
USA 234 3.9 19:55:05 10° ENE 20:00:42 30° SE 20:06:17 10° S
STARLINK-1232 2.9 19:57:54 10° WNW 20:01:01 71° SSW 20:01:50 44° SE
STARLINK-1217 2.9 19:58:20 10° WNW 20:01:28 70° SSW 20:02:16 44° SE
Abrixas rocket 2.2 19:58:39 10° WNW 20:01:34 55° SSW 20:02:07 45° SSE
Cosmos 1892 3.8 19:58:24 10° NNE 20:01:47 27° ENE 20:02:13 27° E
STARLINK-1208 2.9 19:58:45 10° WNW 20:01:54 70° SSW 20:02:43 44° SE
STARLINK-1229 2.9 19:59:14 10° WNW 20:02:21 69° SSW 20:03:07 45° SSE
STARLINK-1271 2.9 19:59:41 10° WNW 20:02:48 68° SW 20:03:34 45° SSE
STARLINK-1270 2.9 20:00:09 10° WNW 20:03:16 68° SSW 20:04:00 46° SSE
H-2A R/B 3.5 19:58:54 10° SSW 20:03:40 36° W 20:08:20 10° NNW
STARLINK-1154 2.9 20:00:36 10° WNW 20:03:43 67° SSW 20:04:26 46° SSE
ATLAS 5 CENTAUR R/B 2.2 20:00:15 10° SW 20:04:22 57° NW 20:09:04 10° NNE
STARLINK-1197 3.0 20:01:31 10° WNW 20:04:37 66° SSW 20:05:18 47° SSE
STARLINK-1189 3.0 20:01:56 10° WNW 20:05:02 65° SW 20:05:43 47° SSE
STARLINK-1138 3.8 20:01:01 10° WNW 20:05:08 62° NNE 20:06:52 32° E
STARLINK-1198 3.0 20:02:25 10° WNW 20:05:31 65° SW 20:06:10 48° SSE
STARLINK-1188 3.0 20:02:51 10° WNW 20:05:57 64° SW 20:06:35 48° SSE
Cosmos 1825 4.3 20:04:16 10° NE 20:05:39 13° ENE 20:05:39 13° ENE
ATLAS 2AS CENTAUR R/B 3.7 19:59:25 10° NW 20:06:30 46° WSW 20:13:00 10° S
STARLINK-1235 3.4 20:03:32 10° WNW 20:06:37 49° SW 20:07:18 40° S
STARLINK-1187 3.2 20:03:56 10° WNW 20:07:03 55° SW 20:07:42 44° SSE
STARLINK-1199 3.1 20:04:48 10° WNW 20:07:55 62° SW 20:08:31 48° SSE
STARLINK-1191 3.1 20:05:15 10° WNW 20:08:21 61° SW 20:08:56 49° SSE
STARLINK-1210 3.1 20:05:42 10° WNW 20:08:49 60° SW 20:09:23 49° SSE
STARLINK-1221 3.1 20:06:09 10° WNW 20:09:16 60° SW 20:09:49 49° SSE
STARLINK-1219 3.1 20:06:36 10° WNW 20:09:44 59° SW 20:10:15 49° S
COSMOS 2455 3.0 20:03:44 10° NW 20:09:45 70° WSW 20:13:57 20° SSE
STARLINK-1143 3.8 20:05:59 10° WNW 20:10:06 66° NNE 20:11:39 36° E
STARLINK-1222 3.1 20:07:03 10° WNW 20:10:10 59° SW 20:10:40 49° S
STARLINK-1211 3.1 20:07:31 10° WNW 20:10:37 58° SW 20:11:07 50° S
STARLINK-1214 3.1 20:07:58 10° WNW 20:11:04 58° SW 20:11:33 50° S
STARLINK-1245 3.1 20:08:26 10° WNW 20:11:31 57° SW 20:11:57 50° S
Cosmos 1140 Rocket 4.0 20:06:37 10° SW 20:11:45 60° WNW 20:16:52 10° NNE
STARLINK-1238 3.1 20:08:52 10° WNW 20:11:58 57° SW 20:12:25 50° S
STARLINK-1205 3.1 20:09:48 10° WNW 20:12:52 55° SW 20:13:16 50° S
STARLINK-1204 3.1 20:10:16 10° WNW 20:13:19 55° SW 20:13:42 50° S
ERBS 2.6 20:10:26 10° NW 20:13:46 55° NE 20:14:20 47° ENE
STARLINK-1241 3.7 20:11:00 10° WNW 20:15:08 70° NNE 20:16:28 41° E
STARLINK-29 3.9 20:14:55 10° W 20:18:02 47° NNW 20:19:44 23° NE
STARLINK-1239 3.6 20:15:57 10° WNW 20:20:06 74° NNE 20:21:14 46° E
IGS 5A 4.2 20:20:27 33° E 20:20:47 34° ENE 20:24:32 10° N
ATLAS CENTAUR R/B 3.0 20:18:35 10° N 20:21:23 19° NE 20:22:10 18° NE
SAR-Lupe-2 3.7 20:17:57 10° NNE 20:21:14 50° E 20:21:14 50° E
Cosmos 1300 3.0 20:18:14 10° SSW 20:22:01 65° W 20:25:50 10° N
Resurs 1-3 4.2 20:18:54 17° S 20:22:11 56° W 20:26:31 10° NNW
Spot 2 Rocket 3.6 20:22:15 36° SE 20:24:05 57° ENE 20:29:05 10° N
STARLINK-1240 3.6 20:20:56 10° WNW 20:25:05 79° NNE 20:26:01 52° ESE
Cosmos 1850 Rocket 4.1 20:24:22 28° SSE 20:26:48 52° ESE 20:31:49 10° NNE
Cosmos 841 Rocket 4.3 20:23:36 10° N 20:28:24 34° ENE 20:29:32 31° E
In-Cosmos 22 Rocket 4.2 20:23:54 10° N 20:29:47 84° E 20:32:45 31° SSE
STARLINK-1216 3.5 20:25:54 10° WNW 20:30:04 84° NNE 20:30:47 59° ESE
Terra 3.3 20:29:53 21° ENE 20:30:07 21° ENE 20:33:39 10° NNE
Cosmos 2082 Rocket 4.3 20:34:09 11° ENE 20:34:09 11° ENE 20:34:39 10° ENE
SPOT 5 3.9 20:31:40 25° ENE 20:31:40 25° ENE 20:35:08 10° N
Meteor 2-10 Rocket 4.1 20:33:52 37° E 20:33:56 37° E 20:38:52 10° NNE
MetOp-B 4.0 20:32:14 36° SSE 20:34:29 81° ENE 20:39:53 10° NNW
STARLINK-1237 3.5 20:30:51 10° WNW 20:35:01 89° NNE 20:35:33 67° ESE
Cosmos 1833 Rocket 3.8 20:39:02 26° ENE 20:39:02 26° ENE 20:42:15 10° NE
STARLINK-1202 3.4 20:35:51 10° WNW 20:40:01 85° SSW 20:40:21 74° SE
Cosmos 468 Rocket 3.8 20:35:54 10° NNW 20:41:07 86° ENE 20:42:31 49° SSE
Cosmos 192 4.4 20:36:53 10° NNW 20:41:51 77° WSW 20:43:22 45° S
SL-4 R/B 3.0 20:42:47 10° WNW 20:45:55 33° N 20:46:33 30° NNE
ERS-1 Rocket 3.3 20:47:01 46° E 20:47:29 47° ENE 20:52:17 10° N
Cosmos 1408 3.5 20:44:17 10° N 20:46:55 39° NNE 20:46:55 39° NNE
STARLINK-1246 3.6 20:45:49 10° WNW 20:49:54 74° SW 20:49:54 74° SW
RESURS DK-1 2.7 20:46:23 10° NNW 20:50:15 53° NE 20:50:15 53° NE
BREEZE M DEB (TANK) 3.0 20:46:04 10° WSW 20:52:59 71° NNW 20:53:25 62° NNE
Cosmos 1766 Rocket 4.3 20:49:11 10° N 20:52:50 39° NE 20:52:50 39° NE
Cosmos 1570 Rocket 4.0 20:48:27 10° NNW 20:53:48 64° ENE 20:54:32 57° ESE
STARLINK-1224 3.7 20:50:50 10° WNW 20:54:43 67° WSW 20:54:43 67° WSW
Okean 3 Rocket 4.0 20:50:41 10° N 20:54:34 49° NE 20:54:34 49° NE
Meteor 2-12 Rocket 4.3 20:49:14 10° N 20:55:21 88° W 20:57:32 43° S
Cosmos 2058 3.4 20:52:45 10° NNW 20:56:48 56° W 20:57:24 50° SW
COSMOS 2406 3.1 20:54:52 38° S 20:57:03 71° ESE 21:02:46 10° NNE
STARLINK-1203 3.9 20:53:12 10° WNW 20:57:04 60° WSW 20:57:04 60° WSW
Resurs 01 Rocket 3.0 20:55:17 23° SW 20:57:21 35° W 21:01:26 10° NNW
CZ-4C R/B 3.5 20:52:05 10° NNW 20:58:46 46° NE 21:01:49 32° E
STARLINK-1225 3.9 20:55:49 10° WNW 20:59:30 59° WSW 20:59:30 59° WSW
Cosmos 2218 Rocket 4.4 20:57:38 10° NNW 21:03:45 59° W 21:07:06 28° SSW
Cosmos 1812 Rocket 4.3 21:02:25 30° SW 21:04:12 49° WNW 21:08:26 10° N
CZ-2C R/B 3.9 21:00:01 10° N 21:04:47 39° WNW 21:09:35 10° SW
STARLINK-1230 4.2 21:00:48 10° WNW 21:04:16 52° WSW 21:04:16 52° WSW
Cosmos 2151 3.3 21:04:03 10° N 21:07:34 60° N 21:07:34 60° N
STARLINK-1243 4.4 21:05:47 10° WNW 21:09:03 46° WSW 21:09:03 46° WSW
Cosmos 1697 Rocket 2.6 21:08:23 10° NNW 21:14:04 69° ENE 21:14:29 66° E
Cosmos 2369 3.6 21:08:32 10° NNW 21:14:11 67° ENE 21:14:33 65° E
Landsat 7 4.3 21:25:10 52° WSW 21:25:23 53° W 21:30:04 10° NNW
Cosmos 1455 3.7 21:31:25 35° NNW 21:31:25 35° NNW 21:33:55 10° N
Cosmos 1763 Rocket 4.2 21:26:14 10° NW 21:31:06 43° WSW 21:31:31 42° WSW
SPOT 1/Viking Rocket 3.9 21:30:44 56° WSW 21:31:09 58° W 21:36:20 10° NNW
Cosmos 1656 4.1 21:26:50 10° NW 21:32:21 53° WSW 21:32:50 51° SW
Cosmos 540 Rocket 3.5 21:29:34 10° NNW 21:34:20 73° NW 21:34:20 73° NW
SL-16 R/B 3.8 21:31:14 10° N 21:35:39 22° NE 21:36:11 22° NE
Cosmos 2360 Rocket 4.5 21:33:17 10° N 21:35:41 13° NE 21:37:32 11° NE
Cosmos 2208 Rocket 4.1 21:31:07 10° NNW 21:36:03 68° W 21:36:03 68° W
Cosmos 1825 4.0 21:38:19 10° NNW 21:40:28 30° NW 21:40:28 30° NW
Nadezhda 3 Rocket 4.0 21:41:26 67° SW 21:42:18 80° W 21:48:37 10° N
Cosmos 2322 Rocket 3.9 21:38:18 10° N 21:42:35 21° NE 21:43:04 21° NE
USA 234 3.1 21:37:37 10° NE 21:44:13 88° NW 21:50:46 10° SW
Cosmos 1980 Rocket 2.4 21:38:40 10° NNW 21:43:48 62° NNE 21:43:48 62° NNE
Cosmos-2242 4.2 21:45:30 41° NW 21:45:30 41° NW 21:49:04 10° N
Cosmos 1814 Rocket 4.3 21:41:15 10° NNW 21:46:08 63° WNW 21:46:08 63° WNW
Cosmos 1535 Rocket 4.4 21:41:01 10° N 21:46:59 73° ENE 21:46:59 73° ENE
ASTEX 1 4.2 21:50:00 47° NNE 21:50:00 47° NNE 21:53:37 10° N
Meteor 2-3 Rocket 3.8 21:50:12 10° NNW 21:55:21 72° NNW 21:55:21 72° NNW
ATLAS CENTAUR R/B 3.6 21:56:55 10° NW 21:58:21 21° NW 21:58:21 21° NW
Terra 2.9 22:08:45 41° NW 22:08:45 41° NW 22:12:11 10° NNW
Mayak 1.0 22:03:38 10° NNE 22:04:58 20° NNE 22:04:58 20° NNE
SPOT 5 4.4 22:10:53 28° WNW 22:10:53 28° WNW 22:13:31 10° NNW
Cosmos 1934 Rocket 4.1 22:05:36 10° NNW 22:11:27 71° WNW 22:11:27 71° WNW
Cosmos 2082 Rocket 2.8 22:15:56 51° N 22:15:56 51° N 22:20:10 10° NNE
Cosmos 2278 4.3 22:09:51 10° NNW 22:14:24 52° WNW 22:14:24 52° WNW
Cosmos 1833 Rocket 3.5 22:20:38 45° WNW 22:21:06 46° WNW 22:26:33 10° NNE
Cosmos 1605 Rocket 4.2 22:24:06 10° N 22:29:21 66° NNW 22:29:21 66° NNW
Cosmos 2344 4.3 22:26:09 10° NW 22:35:51 86° SW 22:38:34 61° SSE
CZ-4C R/B 3.2 22:40:32 10° NW 22:46:59 56° W 22:46:59 56° W
SL-16 R/B 3.5 23:14:41 10° NNW 23:18:02 37° NW 23:18:02 37° NW
Cosmos 2360 Rocket 3.4 23:15:33 10° NNW 23:19:17 38° N 23:19:17 38° N
USA 234 4.2 23:20:46 10° NE 23:26:51 43° NNW 23:32:55 10° W
Cosmos 2322 Rocket 3.5 23:21:39 10° NNW 23:24:52 36° NNW 23:24:52 36° NNW
Cosmos 1980 Rocket 4.4 23:23:40 10° NW 23:25:34 17° WNW 23:25:34 17° WNW
Mayak 1.8 23:41:18 10° NW 23:41:32 10° NW 23:41:32 10° NW
Cosmos 2333 Rocket 3.6 23:38:09 10° NNW 23:42:26 32° NE 23:42:26 32° NE
SL-16 R/B 4.4 23:48:42 19° ENE 23:50:13 21° NE 23:54:40 10° N
